Flag for U.S.A. Weather past 2 weeks in Orange, California, U.S.A.

Now
66 °F

Broken clouds.


Feels Like: 66 °F
Forecast: 53 / 62 °F
Wind: 12 mph from South

Location: John Wayne Airport-Orange County Airport

Current Time: Feb 28, 2015 at 3:20:34 PM

Latest Report: Feb 28, 2015 at 2:53 PM


Visibility: 10 mi

Pressure: 29.85 "Hg

Humidity: 42%

Dew point: 42 °F

Location of OrangeLocation

Historic Weather in Orange — Graph

°F

Orange temperature yesterday

Maximum temperature yesterday: 69 °F (at 11:53 AM)
Minimum temperature yesterday: 57 °F (at 1:53 AM)
Average temperature yesterday: 63 °F

Past Weeks' High & Low Weather Summary

 TemperatureHumidityPressure
High87 °F (Feb 13, 1:53 PM)88% (Feb 26, 6:02 AM)30.23 "Hg (Feb 26, 6:02 AM)
Low51 °F (Feb 24, 4:53 AM)12% (Feb 13, 1:53 PM)29.76 "Hg (Feb 27, 3:53 PM)
Average64 °F59%29.99 "Hg
* Reported Feb 13 1:53 PM — Feb 28 1:53 PM, Orange, Weather by CustomWeather, © 2015

Note: Actual official high and low records may vary slightly from our data, if they occured in-between our weather recording intervals... More about our weather records

Advertising

Orange weather history for previous 24 hours

 ConditionsComfort  
Time TempWeatherWind HumidityBarometerVisibility
1:53 PM
Sat, Feb 28
66 °FBroken clouds.10 mph43%29.85 "Hg10 mi
12:53 PM65 °FBroken clouds.9 mph47%29.87 "Hg10 mi
11:53 AM64 °FBroken clouds.8 mph52%29.88 "Hg10 mi
10:53 AM64 °FBroken clouds.9 mph54%29.89 "Hg10 mi
9:53 AM64 °FBroken clouds.8 mph50%29.88 "Hg10 mi
8:53 AM63 °FBroken clouds.7 mph52%29.86 "Hg10 mi
7:53 AM62 °FSunny.7 mph56%29.84 "Hg10 mi
6:53 AM60 °FBroken clouds.6 mph56%29.81 "Hg10 mi
5:53 AM58 °FPartly cloudy.5 mph58%29.80 "Hg10 mi
4:53 AM59 °FPartly cloudy.No wind58%29.78 "Hg10 mi
3:53 AM60 °FPassing clouds.6 mph58%29.78 "Hg10 mi
2:53 AM61 °FPassing clouds.7 mph60%29.78 "Hg10 mi
1:53 AM61 °FPartly cloudy.7 mph62%29.78 "Hg10 mi
12:53 AM62 °FPassing clouds.6 mph62%29.78 "Hg10 mi
11:53 PM
Fri, Feb 27
62 °FPassing clouds.5 mph65%29.77 "Hg10 mi
10:53 PM63 °FPartly cloudy.6 mph68%29.78 "Hg10 mi
9:53 PM63 °FPassing clouds.9 mph68%29.78 "Hg10 mi
8:53 PM63 °FPassing clouds.5 mph68%29.78 "Hg10 mi
7:53 PM62 °FPassing clouds.6 mph70%29.76 "Hg10 mi
6:53 PM63 °FPassing clouds.5 mph70%29.76 "Hg10 mi
5:53 PM64 °FPartly cloudy.6 mph65%29.76 "Hg10 mi
4:53 PM65 °FPartly sunny.12 mph63%29.76 "Hg10 mi
3:53 PM68 °FBroken clouds.8 mph51%29.76 "Hg10 mi
Weather by CustomWeather, © 2015

See weather overviewHow to use our weather pages